• In Hungary
  • List of Countries
  • For 7 days
  • Water Temperature
  • Satellite Maps
  • Weather Map
  • News
  • Weather Widgets
  • user-avatar
    Login

    Hourly Weather La Paz

    Today, 12 December, Tuesday

    Time Temperature Precipitation Wind Pressure Humidity
    00:00 +6°C° 0 mm 2 mps 474 mmHg 87%
    01:00 +7°C° 0 mm 1 mps 474 mmHg 85%
    02:00 +7°C° 0 mm 1 mps 474 mmHg 87%
    03:00 +6°C° 0 mm 1 mps 474 mmHg 88%
    04:00 +6°C° 0 mm 1 mps 473 mmHg 89%
    05:00 +7°C° 0 mm 1 mps 474 mmHg 84%
    06:00 +7°C° 0 mm 1 mps 475 mmHg 79%
    07:00 +8°C° 0 mm 1 mps 476 mmHg 73%
    08:00 +10°C° 0 mm 1 mps 476 mmHg 67%
    09:00 +11°C° 0 mm 1 mps 477 mmHg 60%
    10:00 +13°C° 0 mm 1 mps 477 mmHg 53%
    11:00 +13°C° 0.1 mm 2 mps 477 mmHg 51%
    12:00 +14°C° 0.1 mm 2 mps 477 mmHg 49%
    13:00 +14°C° 0.1 mm 3 mps 477 mmHg 47%
    14:00 +13°C° 0.3 mm 3 mps 477 mmHg 51%
    15:00 +13°C° 0.3 mm 3 mps 476 mmHg 55%
    16:00 +12°C° 0.3 mm 4 mps 475 mmHg 60%
    17:00 +11°C° 0.2 mm 4 mps 475 mmHg 67%
    18:00 +10°C° 0.2 mm 4 mps 475 mmHg 74%
    19:00 +7°C° 0.2 mm 4 mps 474 mmHg 81%
    20:00 +8°C° 0 mm 3 mps 474 mmHg 82%
    21:00 +8°C° 0 mm 3 mps 475 mmHg 83%
    22:00 +7°C° 0 mm 3 mps 475 mmHg 85%
    23:00 +7°C° 0 mm 2 mps 475 mmHg 85%

    Tomorrow, 13 December, Wednesday

    Time Temperature Precipitation Wind Pressure Humidity
    00:00 +6°C° 0 mm 2 mps 474 mmHg 86%
    01:00 +7°C° 0 mm 1 mps 474 mmHg 86%
    02:00 +7°C° 0 mm 1 mps 474 mmHg 85%
    03:00 +7°C° 0 mm 1 mps 474 mmHg 85%
    04:00 +7°C° 0 mm 1 mps 474 mmHg 84%
    05:00 +7°C° 0 mm 1 mps 474 mmHg 80%
    06:00 +8°C° 0 mm 1 mps 475 mmHg 76%
    07:00 +9°C° 0 mm 1 mps 476 mmHg 71%
    08:00 +10°C° 0 mm 1 mps 477 mmHg 64%
    09:00 +12°C° 0 mm 2 mps 478 mmHg 57%
    10:00 +14°C° 0 mm 2 mps 479 mmHg 50%
    11:00 +14°C° 0.2 mm 3 mps 479 mmHg 47%
    12:00 +14°C° 0.2 mm 3 mps 479 mmHg 44%
    13:00 +15°C° 0.2 mm 4 mps 479 mmHg 40%
    14:00 +15°C° 0.1 mm 4 mps 478 mmHg 43%
    15:00 +14°C° 0.1 mm 4 mps 478 mmHg 46%
    16:00 +14°C° 0.1 mm 4 mps 477 mmHg 48%
    17:00 +12°C° 0 mm 4 mps 476 mmHg 58%
    18:00 +11°C° 0 mm 3 mps 476 mmHg 68%
    19:00 +9°C° 0 mm 3 mps 475 mmHg 77%
    20:00 +8°C° 0 mm 3 mps 475 mmHg 80%
    21:00 +8°C° 0 mm 2 mps 475 mmHg 82%
    22:00 +8°C° 0 mm 2 mps 475 mmHg 84%
    23:00 +7°C° 0 mm 2 mps 475 mmHg 85%

    Day after tomorrow, 14 December, Thursday

    Time Temperature Precipitation Wind Pressure Humidity
    00:00 +8°C° 0 mm 1 mps 475 mmHg 85%
    01:00 +7°C° 0 mm 1 mps 474 mmHg 86%
    02:00 +7°C° 0 mm 1 mps 474 mmHg 86%
    03:00 +7°C° 0 mm 1 mps 474 mmHg 86%
    04:00 +7°C° 0 mm 1 mps 474 mmHg 86%
    05:00 +8°C° 0 mm 1 mps 475 mmHg 80%
    06:00 +9°C° 0 mm 1 mps 476 mmHg 74%
    07:00 +10°C° 0 mm 1 mps 477 mmHg 68%
    08:00 +10°C° 0 mm 2 mps 478 mmHg 62%
    09:00 +12°C° 0 mm 2 mps 478 mmHg 56%
    10:00 +13°C° 0 mm 3 mps 479 mmHg 50%
    11:00 +13°C° 0.1 mm 3 mps 479 mmHg 48%
    12:00 +14°C° 0.1 mm 3 mps 479 mmHg 46%
    13:00 +15°C° 0.1 mm 4 mps 479 mmHg 44%
    14:00 +14°C° 0.2 mm 4 mps 478 mmHg 48%
    15:00 +14°C° 0.2 mm 4 mps 477 mmHg 51%
    16:00 +13°C° 0.2 mm 4 mps 477 mmHg 55%
    17:00 +11°C° 0.4 mm 4 mps 476 mmHg 63%
    18:00 +10°C° 0.4 mm 3 mps 476 mmHg 71%
    19:00 +9°C° 0.4 mm 3 mps 476 mmHg 80%
    20:00 +8°C° 0.1 mm 3 mps 476 mmHg 82%
    21:00 +8°C° 0.1 mm 2 mps 476 mmHg 83%
    22:00 +7°C° 0.1 mm 2 mps 476 mmHg 85%
    23:00 +7°C° 0.2 mm 2 mps 476 mmHg 86%

    15 December, Friday

    Time Temperature Precipitation Wind Pressure Humidity
    00:00 +8°C° 0.2 mm 1 mps 476 mmHg 86%
    01:00 +8°C° 0.2 mm 1 mps 475 mmHg 87%
    02:00 +7°C° 0.1 mm 1 mps 475 mmHg 86%
    03:00 +7°C° 0.1 mm 1 mps 475 mmHg 86%
    04:00 +7°C° 0.1 mm 1 mps 475 mmHg 85%
    05:00 +8°C° 0.1 mm 1 mps 476 mmHg 82%
    06:00 +8°C° 0.1 mm 1 mps 476 mmHg 78%
    07:00 +9°C° 0.1 mm 1 mps 477 mmHg 74%
    08:00 +9°C° 0.1 mm 2 mps 478 mmHg 68%
    09:00 +10°C° 0.1 mm 2 mps 478 mmHg 62%
    10:00 +12°C° 0.1 mm 3 mps 479 mmHg 56%
    11:00 +12°C° 0.1 mm 3 mps 479 mmHg 53%
    12:00 +13°C° 0.1 mm 3 mps 478 mmHg 51%
    13:00 +14°C° 0.1 mm 4 mps 478 mmHg 49%
    14:00 +14°C° 0 mm 4 mps 477 mmHg 50%
    15:00 +13°C° 0 mm 4 mps 477 mmHg 52%
    16:00 +13°C° 0 mm 4 mps 476 mmHg 54%
    17:00 +11°C° 0 mm 3 mps 476 mmHg 62%
    18:00 +10°C° 0 mm 3 mps 475 mmHg 71%
    19:00 +8°C° 0 mm 3 mps 474 mmHg 80%
    20:00 +8°C° 0 mm 2 mps 475 mmHg 81%
    21:00 +7°C° 0 mm 2 mps 475 mmHg 82%
    22:00 +7°C° 0 mm 2 mps 475 mmHg 83%
    23:00 +7°C° 0 mm 2 mps 475 mmHg 82%

    16 December, Saturday

    Time Temperature Precipitation Wind Pressure Humidity
    00:00 +7°C° 0 mm 1 mps 474 mmHg 81%
    01:00 +7°C° 0 mm 1 mps 474 mmHg 81%
    02:00 +7°C° 0 mm 1 mps 474 mmHg 81%
    03:00 +6°C° 0 mm 1 mps 473 mmHg 82%
    04:00 +6°C° 0 mm 1 mps 473 mmHg 82%
    05:00 +7°C° 0 mm 1 mps 474 mmHg 76%
    06:00 +8°C° 0 mm 1 mps 475 mmHg 70%
    07:00 +10°C° 0 mm 1 mps 476 mmHg 64%
    08:00 +11°C° 0 mm 1 mps 477 mmHg 55%
    09:00 +13°C° 0 mm 2 mps 478 mmHg 46%
    10:00 +15°C° 0 mm 2 mps 479 mmHg 37%
    11:00 +16°C° 0 mm 3 mps 479 mmHg 35%
    12:00 +17°C° 0 mm 3 mps 479 mmHg 32%
    13:00 +17°C° 0 mm 4 mps 478 mmHg 30%
    14:00 +17°C° 0 mm 4 mps 478 mmHg 32%
    15:00 +15°C° 0 mm 4 mps 477 mmHg 35%
    16:00 +15°C° 0 mm 4 mps 476 mmHg 38%
    17:00 +13°C° 0 mm 4 mps 475 mmHg 48%
    18:00 +11°C° 0 mm 3 mps 474 mmHg 58%
    19:00 +9°C° 0 mm 3 mps 474 mmHg 68%
    20:00 +9°C° 0 mm 3 mps 474 mmHg 71%
    21:00 +8°C° 0 mm 2 mps 474 mmHg 75%
    22:00 +8°C° 0 mm 2 mps 474 mmHg 78%
    23:00 +7°C° 0 mm 2 mps 474 mmHg 79%

    17 December, Sunday

    Time Temperature Precipitation Wind Pressure Humidity
    00:00 +8°C° 0 mm 1 mps 473 mmHg 80%
    01:00 +7°C° 0 mm 1 mps 473 mmHg 81%
    02:00 +7°C° 0 mm 1 mps 473 mmHg 80%
    03:00 +7°C° 0 mm 1 mps 473 mmHg 79%
    04:00 +7°C° 0 mm 1 mps 473 mmHg 78%
    05:00 +8°C° 0 mm 1 mps 474 mmHg 70%
    06:00 +10°C° 0 mm 1 mps 475 mmHg 62%
    07:00 +10°C° 0 mm 0 mps 476 mmHg 54%
    08:00 +13°C° 0 mm 1 mps 477 mmHg 47%
    09:00 +15°C° 0 mm 2 mps 478 mmHg 40%
    10:00 +16°C° 0 mm 2 mps 479 mmHg 34%
    11:00 +17°C° 0 mm 3 mps 479 mmHg 34%
    12:00 +18°C° 0 mm 4 mps 479 mmHg 34%
    13:00 +18°C° 0 mm 4 mps 479 mmHg 34%
    14:00 +16°C° 0.1 mm 5 mps 478 mmHg 39%
    15:00 +16°C° 0.1 mm 5 mps 477 mmHg 43%
    16:00 +15°C° 0.1 mm 5 mps 477 mmHg 47%
    17:00 +13°C° 0 mm 5 mps 476 mmHg 57%
    18:00 +10°C° 0 mm 5 mps 476 mmHg 67%
    19:00 +8°C° 0 mm 4 mps 475 mmHg 77%
    20:00 +8°C° 0 mm 4 mps 475 mmHg 78%
    21:00 +8°C° 0 mm 3 mps 475 mmHg 79%
    22:00 +7°C° 0 mm 3 mps 475 mmHg 80%
    23:00 +7°C° 0 mm 2 mps 475 mmHg 79%
    Show more